Weather History for Havre, MT

Change the Weather History Date:

Sunday, December 30, 2012

  Actual Average Record
Temperature  
Mean Temperature 18 °F 17 °F  
Max Temperature 28 °F 28 °F 54 °F (1980)
Min Temperature 8 °F 6 °F -39 °F (1884)
Degree Days  
Heating Degree Days 47 48  
Month to date heating degree days 1334 1375  
Since 1 July heating degree days 3321 3418  
Cooling Degree Days 0 0  
Month to date cooling degree days 0 0  
Year to date cooling degree days 507 387  
Moisture  
Dew Point 15 °F    
Average Humidity 81    
Maximum Humidity 88    
Minimum Humidity 74    
Precipitation  
Precipitation 0.00 in 0.02 in 0.25 in (1928)
Month to date precipitation 0.39 0.39  
Year to date precipitation 12.81 11.19  
Snow  
Snow 0.00 in 0.20 in 3.70 in (1984)
Month to date snowfall 7.0 7.1  
Since 1 July snowfall 25.0 14.7  
Snow Depth -    
Sea Level Pressure  
Sea Level Pressure 30.14 in    
Wind  
Wind Speed 9 mph (SW)    
Max Wind Speed 16 mph    
Max Gust Speed 20 mph    
Visibility 10 miles    
Events      
T = Trace of Precipitation, MM = Missing Value Source: NWS Daily Summary

Daily Weather History Graph

Daily Weather History Graph

Search for Another Location

Airport:

Trip Planner

Search our weather history database for the weather conditions in past years. The results will help you decide how hot, cold, wet, or windy it might be!

Date:

Astronomy

Dec. 30, 2012 Rise Set
Actual Time 8:11 AM MST 4:32 PM MST
Civil Twilight 7:34 AM MST 5:09 PM MST
Nautical Twilight 6:54 AM MST 5:49 PM MST
Astronomical Twilight 6:16 AM MST 6:27 PM MST
Moon 7:21 PM MST (12/30) 9:09 AM MST (12/30)
Length of Visible Light 9h 35m
Length of Day
8h 21m
Waning Gibbous, 95% of the Moon is Illuminated
Dec 30
Waning Gibbous
Jan 4
Last Quarter
Jan 11
New
Jan 18
First Quarter
Jan 26
Full

Hourly Weather History & Observations

Time (MST) Temp. Windchill Dew Point Humidity Pressure Visibility Wind Dir Wind Speed Gust Speed Precip Events Conditions
12:53 AM 16.0 °F 7.4 °F 12.0 °F 84% 30.11 in 10.0 mi SW 5.8 mph - N/A   Overcast
1:53 AM 18.0 °F 11.1 °F 12.9 °F 81% 30.11 in 10.0 mi WSW 4.6 mph - N/A   Overcast
2:53 AM 18.0 °F 7.7 °F 12.9 °F 81% 30.12 in 10.0 mi SW 8.1 mph - N/A   Overcast
3:53 AM 18.0 °F 9.8 °F 12.9 °F 81% 30.14 in 10.0 mi WSW 5.8 mph - N/A   Overcast
4:53 AM 19.0 °F 10.0 °F 14.0 °F 81% 30.14 in 10.0 mi WSW 6.9 mph - N/A   Overcast
5:53 AM 19.0 °F 8.2 °F 15.1 °F 85% 30.14 in 10.0 mi SW 9.2 mph - N/A   Overcast
6:53 AM 19.0 °F 9.0 °F 15.1 °F 85% 30.15 in 10.0 mi West 8.1 mph - N/A   Overcast
7:53 AM 19.9 °F 10.1 °F 15.1 °F 81% 30.14 in 10.0 mi SW 8.1 mph - N/A   Overcast
8:53 AM 19.9 °F 9.3 °F 15.1 °F 81% 30.15 in 10.0 mi SW 9.2 mph - N/A   Overcast
9:53 AM 21.9 °F 10.4 °F 17.1 °F 82% 30.16 in 10.0 mi WSW 11.5 mph - N/A   Overcast
10:53 AM 25.0 °F 13.6 °F 19.0 °F 78% 30.16 in 10.0 mi SW 12.7 mph - N/A   Overcast
11:53 AM 27.0 °F 16.7 °F 21.0 °F 78% 30.15 in 10.0 mi SW 11.5 mph - N/A   Overcast
12:53 PM 28.0 °F 17.0 °F 21.9 °F 78% 30.13 in 10.0 mi SW 13.8 mph - N/A   Overcast
1:53 PM 28.0 °F 18.1 °F 21.9 °F 78% 30.11 in 10.0 mi SW 11.5 mph - N/A   Overcast
2:53 PM 28.0 °F 17.0 °F 21.9 °F 78% 30.11 in 10.0 mi SW 13.8 mph - N/A   Overcast
3:53 PM 28.0 °F 18.1 °F 21.0 °F 75% 30.12 in 10.0 mi SW 11.5 mph - N/A   Overcast
4:53 PM 26.1 °F 15.6 °F 19.9 °F 78% 30.12 in 10.0 mi SW 11.5 mph - N/A   Overcast
5:53 PM 24.1 °F 13.7 °F 18.0 °F 77% 30.13 in 10.0 mi West 10.4 mph - N/A   Overcast
6:53 PM 18.0 °F 6.9 °F 14.0 °F 84% 30.14 in 10.0 mi SW 9.2 mph - N/A   Scattered Clouds
7:53 PM 12.9 °F 2.6 °F 9.0 °F 84% 30.15 in 10.0 mi West 6.9 mph - N/A   Partly Cloudy
8:53 PM 15.1 °F 3.3 °F 10.9 °F 84% 30.14 in 10.0 mi WSW 9.2 mph - N/A   Partly Cloudy
9:53 PM 14.0 °F 1.2 °F 10.0 °F 84% 30.14 in 10.0 mi WSW 10.4 mph - N/A   Scattered Clouds
10:53 PM 10.0 °F -1.9 °F 7.0 °F 87% 30.15 in 10.0 mi West 8.1 mph - N/A   Clear
11:53 PM 10.9 °F 2.9 °F 6.1 °F 81% 30.14 in 10.0 mi WSW 4.6 mph - N/A   Clear